Location: San Gennaro Vesuviano
(40.8833°N, 14.5333°E)
Time: 10:36:15
(UTC+00:00)

SPOT 5 - Pass Details

Date: 22 April 2021
Orbit: 624 x 814 km, 98.2° (Epoch: 10 May)

Event Time Altitude Azimuth Distance (km) Brightness Sun altitude
Exits shadow 19:34:55 18° 69° (ENE) 1,677 4.5 -18.6°
Maximum altitude 19:35:18 18° 63° (ENE) 1,673 4.5 -18.7°
Drops below altitude 10° 19:38:27 10° 21° (NNE) 2,186 5.5 -19.2°
Sets 19:41:24 0° 3° (N) 3,150 6.7 -19.6°
